SCP
0 0 0 0 0 0 0 0 0 0 0 0 0 0 0 0 0 0 0 0 0 0 0 0 0 0 0 0 0 0 0 0 0 0 0 0 0 0
0 0 0 0 0 0 0 0 0 0 0 0 0 0 0 0 0 0 0 0 0 0 0 0 0 0 0 0 0 0 0 0 0 0 0 0 0 0
0 0 0 0 0 0 0 0 0 0 0 0 0 0 0 0 0 0 0 0 0 0 0 0 0 0 0 0 0 0 0 0 0 0 0 0 0 0
0 0 0 0 0 0 0 0 0 0 0 0 0 0 0 0 0 0 0 0 0 0 0 0 0 0 0 0 0 0 0 0 0 0 0 0 0 0
0 0 0 0 0 0 0 0 0 0 0 0 0 0 0 0 0 0 0 0 0 0 0 0 0 0 0 0 0 0 0 0 0 0 0 0 0 0
0 0 0 0 0 0 0 0 0 0 0 0 0 0 0 0 0 0 0 0 0 0 0 0 0 0 0 0 0 0 0 0 0 0 0 0 0 0
0 0 0 0 0 0 0 0 0 0 0 0 0 0 0 0 0 0 0 0 0 0 0 0 0 0 0 0 0 0 0 0 0 0 0 0 0 0
0 0 0 0 0 0 0 0 0 0 0 0 0 0 0 0 0 0 0 0 0 0 0 0 0 0 0 0 0 0 0 0 0 0 0 0 0 0
0 0 0 0 0 0 0 0 0 0 0 0 0 0 0 0 0 0 0 0 0 0 0 0 0 0 0 0 0 0 0 0 0 0 0 0 0 0
0 0 0 0 0 0 0 0 0 0 0 0 0 0 0 0 0 0 0 0 0 0 0 0 0 0 0 0 0 0 0 0 0 0 0 0 0 0
0 0 0 0 0 0 0 0 0 0 0 0 0 0 0 0 0 0 0 0 0 0 0 0 0 0 0 0 0 0 0 0 0 0 0 0 0 0
0 0 0 0 0 0 0 0 0 0 0 0 0 0 0 0 0 0 0 0 0 0 0 0 0 0 0 0 0 0 0 0 0 0 0 0 0 0
0 0 0 0 0 0 0 0 0 0 0 0 0 0 0 0 0 0 0 0 0 0 0 0 0 0 0 0 0 0 0 0 0 0 0 0 0 0
0 0 0 0 0 0 0 0 0 0 0 0 0 0 0 0 0 0 0 0 0 0 0 0 0 0 0 0 0 0 0 0 0 0 0 0 0 0
0 0 0 0 0 0 0 0 0 0 0 0 0 0 0 0 0 0 0 0 0 0 0 0 0 0 0 0 0 0 0 0 0 0 0 0 0 0
0 0 0 0 0 0 0 0 0 0 0 0 0 0 0 0 0 0 0 0 0 0 0 0 0 0 0 0 0 0 0 0 0 0 0 0 0 0
0 0 0 0 0 0 0 0 0 0 0 0 0 0 0 0 0 0 0 0 0 0 0 0 0 0 0 0 0 0 0 0 0 0 0 0 0 0
0 0 0 0 0 0 0 0 0 0 0 0 0 0 0 0 0 0 0 0 0 0 0 0 0 0 0 0 0 0 0 0 0 0 0 0 0 0
0 0 0 0 0 0 0 0 0 0 0 0 0 0 0 0 0 0 0 0 0 0 0 0 0 0 0 0 0 0 0 0 0 0 0 0 0 0
0 0 0 0 0 0 0 0 0 0 0 0 0 0 0 0 0 0 0 0 0 0 0 0 0 0 0 0 0 0 0 0 0 0 0 0 0 0
0 0 0 0 0 0 0 0 0 0 0 0 0 0 0 0 0 0 0 0 0 0 0 0 0 0 0 0 0 0 0 0 0 0 0 0 0 0
0 0 0 0 0 0 0 0 0 0 0 0 0 0 0 0 0 0 0 0 0 0 0 0 0 0 0 0 0 0 0 0 0 0 0 0 0 0
0 0 0 0 0 0 0 0 0 0 0 0 0 0 0 0 0 0 0 0 0 0 0 0 0 0 0 0 0 0 0 0 0 0 0 0 0 0
Wind_Speed
3 2 2 2 1 1 2 3 3 2 3 3 2 2 2 1 3 2 2 6 6 7 7 7 7 7 8 9 9 10 10 10 11 12 12 12 13 13
1 2 2 1 1 1 2 2 2 2 3 2 2 2 2 2 4 2 3 6 6 7 8 7 7 7 8 9 9 10 10 11 11 12 12 12 12 12
0 1 1 1 2 1 1 2 2 2 3 3 2 2 2 2 3 2 3 3 3 8 8 8 7 7 8 9 9 9 10 10 11 11 11 12 12 12
1 1 1 1 1 1 1 1 1 2 2 3 2 2 2 3 3 3 3 3 3 7 8 8 8 8 9 9 9 9 10 10 10 11 11 11 12 12
1 1 1 1 1 1 2 2 2 2 2 2 3 2 2 2 2 3 3 3 3 5 7 7 8 9 9 9 9 9 9 9 10 11 10 11 11 12
1 1 2 2 3 2 2 2 2 2 2 2 3 3 2 2 2 2 3 2 3 4 5 6 7 9 9 9 9 9 9 9 10 10 10 11 10 11
1 1 2 2 3 3 2 2 2 2 2 2 3 2 2 2 3 2 3 3 4 3 3 3 3 3 4 7 8 9 9 9 10 10 10 10 10 10
1 1 2 2 3 4 4 4 4 3 3 3 3 4 4 4 3 3 3 4 4 2 2 4 2 4 4 4 8 10 10 10 10 10 10 10 10 10
2 2 2 2 3 2 4 5 5 7 7 4 5 5 5 4 4 4 4 5 5 3 2 5 3 4 4 5 10 10 10 10 10 10 10 10 10 10
2 3 3 3 3 3 3 3 4 5 6 4 5 5 5 5 5 5 5 4 4 3 2 4 3 4 4 4 8 9 9 9 9 10 10 10 11 11
2 2 3 3 6 6 3 3 4 4 6 8 8 8 8 8 5 2 2 3 5 4 2 3 2 3 4 4 5 7 8 9 10 10 11 11 11 10
2 3 5 5 7 7 3 3 4 4 4 4 5 5 4 5 7 4 3 4 4 4 2 2 2 2 3 3 2 3 4 8 11 11 11 10 10 6
2 2 3 7 7 7 5 3 5 4 2 3 3 3 3 3 3 3 4 4 5 5 3 2 2 2 3 4 3 3 3 3 4 6 8 10 10 8
3 3 4 7 7 7 5 6 7 5 2 2 3 3 3 3 3 3 3 4 4 6 4 4 3 3 3 4 4 3 3 3 3 4 4 7 8 9
3 6 7 7 6 4 6 7 5 2 2 3 3 4 3 3 3 2 3 3 4 4 4 4 4 4 4 4 4 4 4 4 3 3 4 4 4 4
3 5 7 6 4 5 4 4 2 2 3 3 3 3 3 3 3 3 3 2 3 3 3 4 4 4 4 5 5 5 4 4 3 4 4 4 4 4
2 1 1 2 2 2 2 2 2 2 3 3 3 3 3 3 3 3 3 3 3 4 3 2 2 2 4 4 5 5 5 5 4 4 4 5 5 4
2 2 2 3 3 3 3 3 3 3 3 3 3 3 4 4 4 3 3 3 4 4 3 3 2 2 2 3 5 5 4 4 4 4 3 4 6 4
3 2 2 3 3 3 3 3 3 3 3 3 4 4 4 4 4 4 3 3 4 4 3 3 2 2 4 5 4 4 3 3 3 3 4 4 5 5
2 3 3 3 3 3 3 3 3 3 3 3 4 4 3 4 4 4 4 4 4 4 4 3 3 3 4 5 4 4 6 4 4 4 4 3 4 6
2 3 3 3 3 3 3 3 4 4 4 3 4 4 3 3 4 4 4 5 5 3 4 4 4 5 3 2 3 3 3 5 5 4 3 3 4 3
3 3 3 3 3 3 3 3 4 4 4 4 4 4 4 4 4 5 4 4 4 4 4 4 3 2 2 3 4 4 4 4 5 6 6 6 3 3
3 3 3 3 3 3 3 4 4 4 4 3 3 4 4 4 4 4 4 4 4 4 3 3 3 2 2 3 3 4 4 4 3 3 3 5 6 7
Wind_Direction
200 194 193 202 192 192 177 172 179 227 257 253 266 278 273 264 287 274 273 290 297 300 297 294 295 296 298 299 300 302 301 303 302 299 295 295 296 296
191 181 198 210 202 194 186 182 184 200 241 250 251 274 280 295 292 282 271 294 292 295 294 293 291 291 294 299 300 302 303 303 301 298 295 295 295 295
137 181 210 215 205 212 199 191 200 201 243 271 264 275 269 281 296 285 279 265 275 288 289 292 293 295 299 300 302 305 304 304 304 303 300 298 300 298
190 175 202 208 204 214 204 213 232 231 230 263 279 278 272 268 274 284 295 291 275 288 291 292 293 297 302 304 304 304 304 305 307 307 306 303 300 300
196 198 210 188 221 235 219 215 231 255 240 253 274 275 276 274 287 295 293 292 296 296 295 292 295 298 300 302 304 305 306 305 304 304 307 310 309 305
197 216 220 207 214 227 231 224 232 241 240 250 264 269 264 267 269 283 297 292 294 300 289 291 296 297 297 299 302 301 300 300 300 301 303 304 306 307
256 253 250 263 259 252 252 230 227 230 236 247 261 272 267 267 262 256 279 293 286 273 276 279 285 284 286 289 293 292 294 296 297 297 300 301 302 302
252 282 279 274 278 288 288 279 264 245 238 239 251 253 259 255 255 265 276 289 287 260 276 281 269 273 275 269 282 288 292 296 296 297 299 299 299 301
236 259 287 290 292 263 279 286 279 276 267 254 247 251 253 247 248 259 259 265 269 269 275 278 268 269 271 278 284 287 292 295 296 298 300 300 300 301
239 242 249 264 271 271 259 262 261 267 269 263 249 252 252 245 233 245 254 267 274 263 237 267 271 269 282 279 284 287 294 295 299 300 299 299 299 298
253 254 260 257 283 298 283 271 276 278 280 277 277 278 281 278 270 255 252 263 278 273 231 241 266 289 283 270 276 292 301 300 300 301 301 300 299 299
260 265 276 280 286 295 277 257 267 273 279 288 289 295 287 272 269 240 232 251 270 271 223 237 262 298 296 273 268 290 297 297 299 298 298 297 299 301
252 257 263 284 290 298 300 265 274 294 276 276 280 281 280 265 254 245 237 238 251 259 239 236 253 258 260 285 289 275 272 279 289 290 293 297 297 295
245 251 259 279 287 296 299 293 299 308 287 284 283 281 278 276 273 269 260 255 253 256 245 231 240 244 257 273 279 283 278 271 270 277 281 292 294 293
254 269 277 281 286 284 289 297 303 288 274 275 277 278 275 273 275 279 278 272 274 271 259 241 237 242 245 256 267 273 285 279 264 266 277 280 279 285
272 277 281 284 282 281 286 290 282 271 276 269 276 281 286 284 277 271 274 280 284 284 275 260 243 239 252 255 256 267 263 263 270 273 277 278 275 267
257 259 256 255 258 261 266 270 270 278 280 275 275 282 284 283 284 279 269 271 266 272 284 288 279 265 253 248 256 255 259 266 268 273 279 282 275 265
253 248 254 250 252 261 268 271 264 264 267 270 271 271 278 282 285 283 276 268 271 272 273 276 288 311 310 283 241 246 255 263 273 271 267 275 282 277
253 252 255 259 261 264 265 265 265 263 265 265 267 268 272 276 276 276 275 274 273 272 271 265 260 262 279 285 279 243 248 266 274 275 267 261 271 279
249 253 257 264 266 267 270 272 271 269 267 269 268 264 263 269 273 272 270 268 273 276 278 272 255 249 253 267 276 278 266 260 263 271 274 273 272 281
255 259 260 264 268 268 268 269 267 267 267 269 270 268 262 262 266 268 271 275 276 268 268 269 265 275 275 269 275 280 278 274 275 271 271 278 286 287
252 256 259 261 263 263 264 264 265 266 266 266 267 267 265 262 264 265 265 268 269 266 269 277 282 283 259 252 265 276 290 301 301 296 280 265 256 259
255 257 258 260 259 257 258 260 261 264 264 265 266 264 263 264 263 263 263 263 265 269 274 282 292 288 273 263 267 276 285 295 302 311 301 299 291 278